NVY845 EGPO-BIIS

Flight info

Callsign NVY845
Flight time 3h 13m
Altitude 26000
Route STN43 DCT BILLY DCT RATSU/M043F260 DCT ING DCT KUMUX
Aircraft P46T/L-SBDGRWY/SB1

Departure

Time 2026-04-27 09:50
Airport Stornoway Airport (EGPO)

Arrival

Time 2026-04-27 13:03
Airport Ísafjörður Airport (BIIS)
Time Latitude Longitude Altitude Speed Heading
2026-04-27 09:41 58.21441 -6.32182 26 ft 0 kts 261°
2026-04-27 09:47 58.21441 -6.32194 28 ft 5 kts 277°
2026-04-27 09:47 58.21460 -6.32259 24 ft 6 kts 290°
2026-04-27 09:47 58.21458 -6.32348 22 ft 9 kts 258°
2026-04-27 09:47 58.21419 -6.32468 18 ft 12 kts 231°
2026-04-27 09:48 58.21355 -6.32578 16 ft 14 kts 196°
2026-04-27 09:48 58.21246 -6.32569 15 ft 17 kts 178°
2026-04-27 09:48 58.21124 -6.32551 16 ft 18 kts 176°
2026-04-27 09:48 58.21005 -6.32533 14 ft 10 kts 184°
2026-04-27 09:49 58.20949 -6.32594 17 ft 7 kts 235°
2026-04-27 09:49 58.20937 -6.32661 20 ft 7 kts 261°
2026-04-27 09:49 58.20928 -6.32788 25 ft 12 kts 263°
2026-04-27 09:49 58.20918 -6.32937 25 ft 10 kts 265°
2026-04-27 09:50 58.21011 -6.33001 23 ft 37 kts 353°
2026-04-27 09:50 58.21463 -6.33084 26 ft 90 kts 354°
2026-04-27 09:50 58.22120 -6.33212 362 ft 97 kts 353°
2026-04-27 09:50 58.22795 -6.33354 815 ft 104 kts 353°
2026-04-27 09:51 58.23588 -6.33497 1131 ft 120 kts 349°
2026-04-27 09:51 58.24335 -6.34068 1622 ft 117 kts 324°
2026-04-27 09:51 58.24927 -6.35136 2113 ft 119 kts 317°
2026-04-27 09:51 58.25547 -6.36166 2636 ft 118 kts 319°
2026-04-27 09:52 58.26177 -6.37186 3129 ft 120 kts 320°
2026-04-27 09:52 58.26823 -6.38213 3623 ft 122 kts 320°
2026-04-27 09:52 58.27479 -6.39246 4116 ft 122 kts 321°
2026-04-27 09:52 58.28133 -6.40274 4634 ft 122 kts 321°
2026-04-27 09:53 58.28791 -6.41307 5125 ft 124 kts 321°
2026-04-27 09:53 58.29458 -6.42354 5624 ft 124 kts 321°
2026-04-27 09:53 58.30113 -6.43382 6119 ft 124 kts 321°
2026-04-27 09:53 58.30787 -6.44443 6600 ft 127 kts 322°
2026-04-27 09:54 58.31469 -6.45513 7058 ft 129 kts 322°
2026-04-27 09:54 58.32162 -6.46603 7538 ft 129 kts 322°
2026-04-27 09:54 58.32852 -6.47689 8020 ft 129 kts 322°
2026-04-27 09:54 58.33542 -6.48775 8492 ft 129 kts 322°
2026-04-27 09:55 58.34233 -6.49863 8965 ft 129 kts 322°
2026-04-27 09:55 58.34924 -6.50952 9435 ft 129 kts 323°
2026-04-27 09:55 58.36300 -6.53121 10354 ft 129 kts 323°
2026-04-27 09:56 58.36992 -6.54215 10793 ft 129 kts 323°
2026-04-27 09:56 58.37685 -6.55308 11238 ft 129 kts 324°
2026-04-27 09:56 58.38375 -6.56400 11690 ft 129 kts 324°
2026-04-27 09:56 58.39066 -6.57492 12151 ft 129 kts 324°
2026-04-27 09:57 58.39757 -6.58586 12604 ft 129 kts 324°
2026-04-27 09:57 58.40440 -6.59665 13056 ft 129 kts 324°
2026-04-27 09:57 58.41131 -6.60760 13516 ft 129 kts 324°
2026-04-27 09:57 58.41823 -6.61856 13987 ft 129 kts 324°
2026-04-27 09:58 58.42515 -6.62953 14419 ft 129 kts 324°
2026-04-27 09:58 58.43199 -6.64038 14862 ft 127 kts 324°
2026-04-27 09:58 58.43873 -6.65107 15311 ft 125 kts 324°
2026-04-27 09:58 58.44535 -6.66158 15760 ft 123 kts 324°
2026-04-27 09:59 58.45182 -6.67200 16214 ft 121 kts 323°
2026-04-27 09:59 58.45819 -6.68222 16667 ft 119 kts 324°
2026-04-27 09:59 58.46447 -6.69222 17138 ft 116 kts 324°
2026-04-27 09:59 58.47064 -6.70204 17591 ft 115 kts 324°
2026-04-27 10:00 58.47663 -6.71158 18048 ft 113 kts 324°
2026-04-27 10:00 58.48260 -6.72109 18523 ft 111 kts 324°
2026-04-27 10:00 58.48847 -6.73044 18943 ft 109 kts 324°
2026-04-27 10:00 58.49432 -6.73975 19307 ft 110 kts 324°
2026-04-27 10:01 58.50021 -6.74914 19671 ft 111 kts 324°
2026-04-27 10:01 58.50615 -6.75861 20032 ft 112 kts 325°
2026-04-27 10:01 58.51213 -6.76816 20398 ft 112 kts 325°
2026-04-27 10:01 58.51815 -6.77777 20763 ft 113 kts 325°
2026-04-27 10:02 58.52414 -6.78733 21126 ft 114 kts 326°
2026-04-27 10:02 58.53024 -6.79708 21494 ft 115 kts 326°
2026-04-27 10:02 58.53639 -6.80691 21855 ft 116 kts 326°
2026-04-27 10:02 58.54258 -6.81681 22232 ft 116 kts 326°
2026-04-27 10:03 58.54881 -6.82678 22613 ft 117 kts 327°
2026-04-27 10:03 58.55509 -6.83684 22997 ft 118 kts 327°
2026-04-27 10:03 58.56142 -6.84698 23379 ft 119 kts 327°
2026-04-27 10:03 58.56781 -6.85721 23754 ft 120 kts 327°
2026-04-27 10:04 58.57423 -6.86751 24090 ft 121 kts 327°
2026-04-27 10:04 58.58060 -6.87773 24404 ft 121 kts 327°
2026-04-27 10:04 58.58706 -6.88811 24724 ft 121 kts 327°
2026-04-27 10:04 58.59354 -6.89851 25042 ft 122 kts 327°
2026-04-27 10:05 58.60052 -6.90961 25072 ft 139 kts 327°
2026-04-27 10:05 58.60815 -6.92185 25258 ft 144 kts 326°
2026-04-27 10:05 58.61580 -6.93421 25536 ft 144 kts 326°
2026-04-27 10:05 58.62347 -6.94657 25801 ft 144 kts 326°
2026-04-27 10:06 58.63117 -6.95898 26064 ft 145 kts 326°
2026-04-27 10:06 58.63880 -6.97123 26322 ft 145 kts 327°
2026-04-27 10:06 58.64713 -6.98344 26347 ft 156 kts 328°
2026-04-27 10:06 58.65605 -6.99648 26356 ft 166 kts 327°
2026-04-27 10:07 58.66538 -7.01037 26356 ft 173 kts 327°
2026-04-27 10:07 58.67506 -7.02487 26355 ft 179 kts 327°
2026-04-27 10:07 58.68497 -7.03973 26353 ft 183 kts 327°
2026-04-27 10:07 58.69508 -7.05488 26360 ft 186 kts 327°
2026-04-27 10:08 58.70531 -7.07025 26358 ft 188 kts 327°
2026-04-27 10:08 58.71550 -7.08555 26356 ft 189 kts 327°
2026-04-27 10:08 58.72590 -7.10117 26356 ft 190 kts 327°
2026-04-27 10:08 58.73632 -7.11686 26357 ft 191 kts 327°
2026-04-27 10:09 58.74680 -7.13262 26357 ft 191 kts 327°
2026-04-27 10:09 58.75728 -7.14842 26357 ft 192 kts 327°
2026-04-27 10:09 58.76780 -7.16427 26358 ft 192 kts 327°
2026-04-27 10:09 58.77831 -7.18013 26358 ft 192 kts 327°
2026-04-27 10:10 58.78883 -7.19601 26357 ft 192 kts 327°
2026-04-27 10:10 58.79936 -7.21192 26358 ft 192 kts 327°
2026-04-27 10:10 58.80988 -7.22784 26358 ft 192 kts 327°
2026-04-27 10:10 58.82041 -7.24377 26358 ft 192 kts 327°
2026-04-27 10:11 58.83082 -7.25955 26353 ft 193 kts 327°
2026-04-27 10:11 58.84138 -7.27556 26350 ft 193 kts 327°
2026-04-27 10:11 58.85197 -7.29162 26350 ft 194 kts 327°
2026-04-27 10:11 58.86255 -7.30769 26350 ft 194 kts 327°
2026-04-27 10:12 58.87314 -7.32379 26350 ft 194 kts 327°
2026-04-27 10:12 58.88374 -7.33990 26351 ft 194 kts 327°
2026-04-27 10:12 58.89434 -7.35604 26351 ft 194 kts 327°
2026-04-27 10:12 58.90494 -7.37218 26351 ft 194 kts 327°
2026-04-27 10:13 58.91538 -7.38810 26351 ft 194 kts 327°
2026-04-27 10:13 58.92599 -7.40429 26351 ft 194 kts 327°
2026-04-27 10:13 58.93658 -7.42046 26351 ft 194 kts 327°
2026-04-27 10:13 58.94719 -7.43667 26351 ft 194 kts 327°
2026-04-27 10:14 58.95777 -7.45285 26352 ft 194 kts 327°
2026-04-27 10:14 58.96837 -7.46907 26352 ft 194 kts 327°
2026-04-27 10:14 58.97896 -7.48531 26352 ft 194 kts 327°
2026-04-27 10:14 58.98955 -7.50154 26352 ft 194 kts 327°
2026-04-27 10:15 59.00013 -7.51777 26352 ft 194 kts 327°
2026-04-27 10:15 59.01057 -7.53380 26352 ft 194 kts 327°
2026-04-27 10:15 59.02115 -7.55006 26352 ft 194 kts 327°
2026-04-27 10:15 59.03173 -7.56633 26352 ft 194 kts 326°
2026-04-27 10:16 59.04231 -7.58262 26349 ft 194 kts 326°
2026-04-27 10:16 59.05289 -7.59892 26349 ft 194 kts 326°
2026-04-27 10:16 59.06346 -7.61521 26349 ft 194 kts 326°
2026-04-27 10:16 59.07404 -7.63154 26349 ft 194 kts 326°
2026-04-27 10:17 59.08461 -7.64787 26349 ft 194 kts 326°
2026-04-27 10:17 59.09503 -7.66397 26351 ft 194 kts 327°
2026-04-27 10:17 59.10562 -7.68035 26349 ft 195 kts 327°
2026-04-27 10:17 59.11623 -7.69676 26338 ft 195 kts 325°
2026-04-27 10:18 59.12688 -7.71327 26338 ft 197 kts 325°
2026-04-27 10:18 59.13736 -7.72951 26335 ft 198 kts 325°
2026-04-27 10:18 59.14807 -7.74614 26334 ft 198 kts 325°
2026-04-27 10:18 59.15887 -7.76291 26335 ft 199 kts 325°
2026-04-27 10:19 59.16969 -7.77973 26339 ft 199 kts 325°
2026-04-27 10:19 59.18039 -7.79638 26337 ft 200 kts 325°
2026-04-27 10:19 59.19126 -7.81331 26338 ft 200 kts 325°
2026-04-27 10:19 59.20215 -7.83026 26339 ft 200 kts 325°
2026-04-27 10:20 59.21303 -7.84723 26342 ft 200 kts 325°
2026-04-27 10:20 59.22392 -7.86423 26340 ft 201 kts 325°
2026-04-27 10:20 59.23481 -7.88125 26340 ft 201 kts 324°
2026-04-27 10:20 59.24571 -7.89829 26343 ft 201 kts 324°
2026-04-27 10:21 59.25660 -7.91533 26338 ft 201 kts 324°
2026-04-27 10:21 59.26752 -7.93244 26338 ft 201 kts 324°
2026-04-27 10:21 59.27826 -7.94927 26338 ft 201 kts 324°
2026-04-27 10:21 59.28915 -7.96636 26339 ft 201 kts 324°
2026-04-27 10:22 59.30007 -7.98350 26339 ft 201 kts 324°
2026-04-27 10:22 59.31061 -8.00006 26339 ft 200 kts 324°
2026-04-27 10:22 59.32148 -8.01716 26339 ft 200 kts 324°
2026-04-27 10:22 59.33235 -8.03427 26339 ft 201 kts 324°
2026-04-27 10:23 59.34323 -8.05142 26339 ft 201 kts 324°
2026-04-27 10:23 59.35411 -8.06856 26350 ft 201 kts 324°
2026-04-27 10:23 59.36501 -8.08577 26348 ft 201 kts 324°
2026-04-27 10:23 59.37591 -8.10298 26349 ft 202 kts 324°
2026-04-27 10:24 59.38683 -8.12025 26347 ft 202 kts 324°
2026-04-27 10:24 59.39776 -8.13754 26348 ft 202 kts 324°
2026-04-27 10:24 59.40869 -8.15486 26351 ft 202 kts 324°
2026-04-27 10:24 59.41948 -8.17195 26346 ft 202 kts 324°
2026-04-27 10:25 59.43043 -8.18931 26347 ft 202 kts 324°
2026-04-27 10:25 59.44135 -8.20666 26347 ft 202 kts 324°
2026-04-27 10:25 59.45229 -8.22404 26347 ft 202 kts 324°
2026-04-27 10:25 59.46323 -8.24144 26350 ft 202 kts 324°
2026-04-27 10:26 59.47415 -8.25882 26347 ft 202 kts 324°
2026-04-27 10:26 59.48509 -8.27623 26347 ft 202 kts 324°
2026-04-27 10:26 59.49602 -8.29367 26347 ft 202 kts 324°
2026-04-27 10:26 59.50696 -8.31112 26347 ft 202 kts 324°
2026-04-27 10:27 59.51774 -8.32834 26351 ft 202 kts 324°
2026-04-27 10:27 59.52867 -8.34581 26347 ft 202 kts 324°
2026-04-27 10:27 59.53959 -8.36328 26347 ft 202 kts 324°
2026-04-27 10:27 59.55052 -8.38078 26347 ft 202 kts 324°
2026-04-27 10:28 59.56143 -8.39827 26348 ft 202 kts 324°
2026-04-27 10:28 59.57236 -8.41580 26348 ft 203 kts 324°
2026-04-27 10:28 59.58329 -8.43334 26348 ft 203 kts 324°
2026-04-27 10:28 59.59423 -8.45093 26351 ft 203 kts 324°
2026-04-27 10:29 59.60515 -8.46849 26348 ft 203 kts 324°
2026-04-27 10:29 59.61593 -8.48583 26345 ft 203 kts 324°
2026-04-27 10:29 59.62688 -8.50348 26348 ft 203 kts 324°
2026-04-27 10:29 59.63782 -8.52113 26332 ft 204 kts 323°
2026-04-27 10:30 59.64882 -8.53887 26333 ft 205 kts 323°
2026-04-27 10:30 59.65988 -8.55674 26334 ft 205 kts 323°
2026-04-27 10:30 59.67096 -8.57464 26331 ft 205 kts 323°
2026-04-27 10:30 59.68200 -8.59251 26330 ft 206 kts 323°
2026-04-27 10:31 59.69308 -8.61045 26332 ft 206 kts 323°
2026-04-27 10:31 59.70419 -8.62846 26332 ft 206 kts 323°
2026-04-27 10:31 59.71513 -8.64620 26334 ft 206 kts 323°
2026-04-27 10:31 59.72623 -8.66422 26333 ft 206 kts 323°
2026-04-27 10:32 59.73733 -8.68227 26336 ft 207 kts 323°
2026-04-27 10:32 59.74845 -8.70035 26336 ft 207 kts 323°
2026-04-27 10:32 59.75957 -8.71846 26337 ft 207 kts 323°
2026-04-27 10:32 59.77070 -8.73660 26334 ft 207 kts 323°
2026-04-27 10:33 59.78183 -8.75476 26333 ft 207 kts 323°
2026-04-27 10:33 59.79297 -8.77293 26333 ft 207 kts 323°
2026-04-27 10:33 59.80409 -8.79111 26334 ft 207 kts 323°
2026-04-27 10:33 59.81508 -8.80907 26334 ft 207 kts 323°
2026-04-27 10:34 59.82621 -8.82729 26335 ft 207 kts 323°
2026-04-27 10:34 59.83733 -8.84551 26335 ft 207 kts 323°
2026-04-27 10:34 59.84846 -8.86376 26335 ft 207 kts 323°
2026-04-27 10:34 59.85959 -8.88202 26335 ft 207 kts 323°
2026-04-27 10:35 59.87072 -8.90030 26335 ft 207 kts 323°
2026-04-27 10:35 59.88184 -8.91859 26333 ft 208 kts 322°
2026-04-27 10:35 59.89299 -8.93694 26333 ft 208 kts 322°
2026-04-27 10:35 59.90414 -8.95531 26333 ft 208 kts 322°
2026-04-27 10:36 59.91481 -8.97290 26336 ft 207 kts 322°
2026-04-27 10:36 59.92588 -8.99115 26333 ft 206 kts 322°
2026-04-27 10:36 59.93696 -9.00946 26331 ft 207 kts 322°
2026-04-27 10:36 59.94807 -9.02783 26331 ft 208 kts 322°
2026-04-27 10:37 59.95920 -9.04624 26332 ft 208 kts 322°
2026-04-27 10:37 59.97035 -9.06470 26332 ft 208 kts 322°
2026-04-27 10:37 59.98150 -9.08318 26331 ft 208 kts 322°
2026-04-27 10:37 59.99266 -9.10171 26331 ft 209 kts 322°
2026-04-27 10:38 60.00384 -9.12026 26332 ft 209 kts 322°
2026-04-27 10:38 60.01485 -9.13856 26332 ft 209 kts 322°
2026-04-27 10:38 60.02601 -9.15713 26332 ft 209 kts 322°
2026-04-27 10:38 60.03717 -9.17570 26332 ft 209 kts 322°
2026-04-27 10:39 60.04832 -9.19429 26332 ft 209 kts 322°
2026-04-27 10:39 60.05947 -9.21289 26332 ft 209 kts 322°
2026-04-27 10:39 60.07062 -9.23150 26332 ft 209 kts 322°
2026-04-27 10:39 60.08177 -9.25013 26329 ft 209 kts 322°
2026-04-27 10:40 60.09290 -9.26874 26329 ft 209 kts 322°
2026-04-27 10:40 60.10390 -9.28715 26329 ft 209 kts 322°
2026-04-27 10:40 60.11504 -9.30583 26329 ft 209 kts 322°
2026-04-27 10:40 60.12618 -9.32450 26329 ft 209 kts 322°
2026-04-27 10:41 60.13731 -9.34318 26338 ft 209 kts 322°
2026-04-27 10:41 60.14846 -9.36193 26311 ft 209 kts 321°
2026-04-27 10:41 60.15962 -9.38069 26324 ft 210 kts 320°
2026-04-27 10:41 60.17082 -9.39954 26323 ft 211 kts 320°
2026-04-27 10:42 60.18207 -9.41851 26324 ft 211 kts 320°
2026-04-27 10:42 60.19318 -9.43724 26325 ft 212 kts 320°
2026-04-27 10:42 60.20446 -9.45627 26325 ft 212 kts 320°
2026-04-27 10:42 60.21574 -9.47533 26327 ft 212 kts 320°
2026-04-27 10:43 60.22705 -9.49445 26328 ft 212 kts 320°
2026-04-27 10:43 60.23832 -9.51354 26327 ft 212 kts 320°
2026-04-27 10:43 60.24962 -9.53268 26328 ft 212 kts 320°
2026-04-27 10:43 60.26093 -9.55184 26329 ft 212 kts 320°
2026-04-27 10:44 60.27224 -9.57104 26329 ft 212 kts 320°
2026-04-27 10:44 60.28337 -9.58997 26329 ft 213 kts 320°
2026-04-27 10:44 60.29467 -9.60917 26325 ft 213 kts 320°
2026-04-27 10:44 60.30598 -9.62843 26325 ft 213 kts 320°
2026-04-27 10:45 60.32734 -9.66483 26327 ft 213 kts 320°
2026-04-27 10:45 60.33861 -9.68407 26327 ft 213 kts 320°
2026-04-27 10:45 60.35006 -9.70363 26326 ft 213 kts 320°
2026-04-27 10:46 60.36119 -9.72267 26326 ft 213 kts 320°
2026-04-27 10:46 60.37248 -9.74199 26327 ft 213 kts 320°
2026-04-27 10:46 60.38377 -9.76133 26327 ft 213 kts 320°
2026-04-27 10:46 60.39504 -9.78065 26337 ft 213 kts 320°
2026-04-27 10:47 60.40635 -9.80006 26336 ft 213 kts 320°
2026-04-27 10:47 60.41765 -9.81947 26336 ft 213 kts 320°
2026-04-27 10:47 60.42894 -9.83890 26336 ft 213 kts 320°
2026-04-27 10:47 60.44026 -9.85837 26336 ft 213 kts 320°
2026-04-27 10:48 60.45156 -9.87785 26336 ft 213 kts 320°
2026-04-27 10:48 60.46286 -9.89734 26337 ft 213 kts 320°
2026-04-27 10:48 60.47401 -9.91658 26337 ft 213 kts 320°
2026-04-27 10:48 60.48533 -9.93613 26337 ft 214 kts 320°
2026-04-27 10:49 60.49663 -9.95568 26331 ft 214 kts 320°
2026-04-27 10:49 60.50792 -9.97523 26331 ft 214 kts 320°
2026-04-27 10:49 60.51923 -9.99482 26331 ft 214 kts 320°
2026-04-27 10:49 60.53051 -10.01439 26331 ft 214 kts 320°
2026-04-27 10:50 60.54181 -10.03400 26331 ft 214 kts 320°
2026-04-27 10:50 60.55310 -10.05363 26330 ft 214 kts 320°
2026-04-27 10:50 60.56424 -10.07301 26328 ft 214 kts 320°
2026-04-27 10:50 60.57554 -10.09267 26328 ft 214 kts 320°
2026-04-27 10:51 60.58682 -10.11234 26331 ft 214 kts 320°
2026-04-27 10:51 60.59810 -10.13200 26329 ft 214 kts 320°
2026-04-27 10:51 60.60938 -10.15170 26328 ft 214 kts 320°
2026-04-27 10:51 60.62066 -10.17141 26328 ft 214 kts 320°
2026-04-27 10:52 60.63192 -10.19111 26330 ft 214 kts 320°
2026-04-27 10:52 60.64318 -10.21083 26331 ft 214 kts 320°
2026-04-27 10:52 60.65445 -10.23057 26337 ft 214 kts 319°
2026-04-27 10:52 60.66574 -10.25038 26316 ft 214 kts 319°
2026-04-27 10:53 60.67689 -10.26996 26313 ft 215 kts 318°
2026-04-27 10:53 60.69966 -10.31001 26312 ft 217 kts 318°
2026-04-27 10:53 60.71108 -10.33013 26310 ft 217 kts 318°
2026-04-27 10:54 60.72251 -10.35027 26311 ft 217 kts 318°
2026-04-27 10:54 60.73396 -10.37048 26312 ft 218 kts 318°
2026-04-27 10:54 60.74542 -10.39072 26312 ft 218 kts 318°
2026-04-27 10:54 60.75673 -10.41072 26312 ft 218 kts 318°
2026-04-27 10:55 60.76820 -10.43102 26310 ft 218 kts 318°
2026-04-27 10:55 60.77966 -10.45130 26308 ft 218 kts 318°
2026-04-27 10:55 60.79112 -10.47163 26308 ft 218 kts 318°
2026-04-27 10:55 60.80258 -10.49197 26308 ft 218 kts 318°
2026-04-27 10:56 60.81404 -10.51233 26305 ft 218 kts 318°
2026-04-27 10:56 60.82548 -10.53268 26305 ft 218 kts 318°
2026-04-27 10:56 60.83694 -10.55309 26305 ft 218 kts 318°
2026-04-27 10:56 60.84841 -10.57351 26305 ft 218 kts 318°
2026-04-27 10:57 60.85984 -10.59392 26308 ft 218 kts 318°
2026-04-27 10:57 60.87113 -10.61406 26308 ft 218 kts 318°
2026-04-27 10:57 60.88259 -10.63454 26308 ft 218 kts 318°
2026-04-27 10:57 60.89402 -10.65499 26308 ft 218 kts 318°
2026-04-27 10:58 60.90544 -10.67545 26308 ft 218 kts 318°
2026-04-27 10:58 60.91688 -10.69594 26314 ft 218 kts 317°
2026-04-27 10:58 60.92832 -10.71649 26313 ft 219 kts 317°
2026-04-27 10:58 60.93978 -10.73707 26313 ft 219 kts 317°
2026-04-27 10:59 60.95125 -10.75768 26314 ft 219 kts 317°
2026-04-27 10:59 60.96271 -10.77831 26314 ft 219 kts 317°
2026-04-27 10:59 60.97404 -10.79872 26314 ft 219 kts 317°
2026-04-27 11:00 60.99695 -10.84006 26315 ft 219 kts 317°
2026-04-27 11:00 61.00841 -10.86075 26314 ft 219 kts 317°
2026-04-27 11:00 61.01987 -10.88148 26313 ft 219 kts 317°
2026-04-27 11:00 61.03131 -10.90220 26312 ft 219 kts 317°
2026-04-27 11:01 61.04276 -10.92295 26311 ft 219 kts 317°
2026-04-27 11:01 61.05420 -10.94370 26311 ft 219 kts 317°
2026-04-27 11:01 61.06565 -10.96449 26311 ft 219 kts 317°
2026-04-27 11:01 61.07693 -10.98500 26311 ft 219 kts 317°
2026-04-27 11:02 61.08837 -11.00581 26311 ft 219 kts 317°
2026-04-27 11:02 61.09981 -11.02666 26311 ft 219 kts 317°
2026-04-27 11:02 61.11126 -11.04752 26311 ft 219 kts 317°
2026-04-27 11:02 61.12270 -11.06840 26306 ft 219 kts 317°
2026-04-27 11:03 61.13412 -11.08927 26305 ft 219 kts 317°
2026-04-27 11:03 61.14556 -11.11018 26305 ft 219 kts 317°
2026-04-27 11:03 61.15685 -11.13086 26304 ft 219 kts 317°
2026-04-27 11:03 61.16828 -11.15180 26305 ft 219 kts 317°
2026-04-27 11:04 61.17971 -11.17276 26307 ft 219 kts 317°
2026-04-27 11:04 61.19113 -11.19374 26292 ft 220 kts 316°
2026-04-27 11:04 61.20260 -11.21483 26291 ft 221 kts 316°
2026-04-27 11:04 61.21411 -11.23599 26291 ft 221 kts 316°
2026-04-27 11:05 61.22562 -11.25718 26283 ft 221 kts 316°
2026-04-27 11:05 61.23713 -11.27841 26284 ft 222 kts 316°
2026-04-27 11:05 61.24867 -11.29970 26284 ft 222 kts 316°
2026-04-27 11:05 61.26005 -11.32072 26285 ft 222 kts 316°
2026-04-27 11:06 61.27160 -11.34207 26286 ft 222 kts 316°
2026-04-27 11:06 61.28313 -11.36343 26286 ft 222 kts 316°
2026-04-27 11:06 61.29467 -11.38481 26287 ft 222 kts 316°
2026-04-27 11:06 61.30621 -11.40621 26287 ft 222 kts 316°
2026-04-27 11:07 61.31774 -11.42762 26287 ft 222 kts 316°
2026-04-27 11:07 61.32928 -11.44906 26287 ft 222 kts 316°
2026-04-27 11:07 61.34083 -11.47055 26287 ft 222 kts 316°
2026-04-27 11:07 61.35222 -11.49178 26287 ft 223 kts 316°
2026-04-27 11:08 61.36376 -11.51329 26286 ft 222 kts 316°
2026-04-27 11:08 61.37529 -11.53481 26287 ft 223 kts 316°
2026-04-27 11:08 61.38681 -11.55633 26286 ft 222 kts 316°
2026-04-27 11:08 61.39831 -11.57783 26281 ft 221 kts 316°
2026-04-27 11:09 61.40975 -11.59924 26283 ft 221 kts 316°
2026-04-27 11:09 61.42116 -11.62064 26286 ft 220 kts 316°
2026-04-27 11:09 61.43254 -11.64198 26256 ft 220 kts 315°
2026-04-27 11:09 61.44387 -11.66327 26277 ft 220 kts 314°
2026-04-27 11:10 61.45511 -11.68440 26278 ft 220 kts 314°
2026-04-27 11:10 61.46651 -11.70585 26278 ft 221 kts 314°
2026-04-27 11:10 61.47792 -11.72735 26278 ft 221 kts 314°
2026-04-27 11:10 61.48936 -11.74891 26279 ft 221 kts 314°
2026-04-27 11:11 61.50080 -11.77051 26281 ft 222 kts 314°
2026-04-27 11:11 61.51226 -11.79215 26281 ft 222 kts 314°
2026-04-27 11:11 61.52370 -11.81379 26281 ft 222 kts 314°
2026-04-27 11:11 61.53514 -11.83545 26276 ft 222 kts 314°
2026-04-27 11:12 61.54644 -11.85687 26273 ft 222 kts 314°
2026-04-27 11:12 61.55788 -11.87858 26273 ft 222 kts 314°
2026-04-27 11:12 61.56932 -11.90031 26273 ft 222 kts 314°
2026-04-27 11:12 61.58074 -11.92201 26273 ft 222 kts 314°
2026-04-27 11:13 61.59217 -11.94377 26273 ft 222 kts 314°
2026-04-27 11:13 61.60359 -11.96553 26270 ft 222 kts 314°
2026-04-27 11:13 61.61502 -11.98733 26270 ft 222 kts 314°
2026-04-27 11:13 61.62642 -12.00909 26271 ft 222 kts 314°
2026-04-27 11:14 61.63783 -12.03090 26267 ft 222 kts 314°
2026-04-27 11:14 61.64908 -12.05243 26267 ft 222 kts 314°
2026-04-27 11:14 61.66049 -12.07427 26267 ft 222 kts 314°
2026-04-27 11:14 61.67189 -12.09614 26267 ft 222 kts 314°
2026-04-27 11:15 61.68331 -12.11804 26269 ft 222 kts 314°
2026-04-27 11:15 61.69472 -12.13996 26285 ft 222 kts 314°
2026-04-27 11:15 61.70612 -12.16190 26279 ft 222 kts 313°
2026-04-27 11:15 61.71755 -12.18389 26278 ft 223 kts 312°
2026-04-27 11:16 61.72899 -12.20596 26276 ft 223 kts 312°
2026-04-27 11:16 61.74046 -12.22807 26276 ft 223 kts 312°
2026-04-27 11:16 61.75177 -12.24991 26271 ft 224 kts 312°
2026-04-27 11:16 61.76324 -12.27210 26272 ft 224 kts 312°
2026-04-27 11:17 61.77472 -12.29430 26269 ft 224 kts 312°
2026-04-27 11:17 61.78617 -12.31650 26269 ft 224 kts 312°
2026-04-27 11:17 61.79765 -12.33877 26270 ft 224 kts 312°
2026-04-27 11:17 61.80912 -12.36102 26270 ft 224 kts 312°
2026-04-27 11:18 61.82059 -12.38333 26270 ft 224 kts 312°
2026-04-27 11:18 61.83206 -12.40563 26271 ft 224 kts 312°
2026-04-27 11:18 61.84353 -12.42797 26271 ft 224 kts 312°
2026-04-27 11:18 61.85483 -12.45000 26266 ft 224 kts 312°
2026-04-27 11:19 61.86629 -12.47237 26265 ft 224 kts 312°
2026-04-27 11:19 61.87774 -12.49474 26265 ft 224 kts 312°
2026-04-27 11:19 61.88920 -12.51716 26265 ft 224 kts 312°
2026-04-27 11:19 61.90065 -12.53957 26265 ft 224 kts 312°
2026-04-27 11:20 61.91210 -12.56202 26265 ft 224 kts 312°
2026-04-27 11:20 61.92355 -12.58449 26265 ft 224 kts 312°
2026-04-27 11:20 61.93499 -12.60697 26265 ft 224 kts 312°
2026-04-27 11:20 61.94643 -12.62947 26265 ft 224 kts 312°
2026-04-27 11:21 61.95775 -12.65174 26260 ft 225 kts 311°
2026-04-27 11:21 61.96921 -12.67433 26260 ft 225 kts 311°
2026-04-27 11:21 61.98065 -12.69690 26260 ft 225 kts 311°
2026-04-27 11:21 61.99210 -12.71953 26260 ft 225 kts 311°
2026-04-27 11:22 62.00354 -12.74213 26261 ft 224 kts 311°
2026-04-27 11:22 62.01498 -12.76476 26255 ft 224 kts 311°
2026-04-27 11:22 62.02639 -12.78738 26255 ft 224 kts 311°
2026-04-27 11:22 62.03781 -12.81003 26255 ft 224 kts 311°
2026-04-27 11:23 62.04907 -12.83239 26255 ft 224 kts 311°
2026-04-27 11:23 62.06047 -12.85504 26246 ft 224 kts 311°
2026-04-27 11:23 62.07186 -12.87771 26247 ft 224 kts 311°
2026-04-27 11:23 62.08326 -12.90042 26248 ft 224 kts 311°
2026-04-27 11:24 62.09467 -12.92317 26248 ft 225 kts 311°
2026-04-27 11:24 62.10609 -12.94596 26248 ft 225 kts 311°
2026-04-27 11:24 62.11750 -12.96877 26249 ft 225 kts 311°
2026-04-27 11:24 62.12891 -12.99159 26248 ft 225 kts 311°
2026-04-27 11:25 62.14016 -13.01412 26246 ft 224 kts 311°
2026-04-27 11:25 62.15154 -13.03694 26246 ft 224 kts 311°
2026-04-27 11:25 62.16290 -13.05974 26241 ft 224 kts 311°
2026-04-27 11:25 62.17426 -13.08256 26242 ft 224 kts 311°
2026-04-27 11:26 62.18565 -13.10548 26243 ft 225 kts 311°
2026-04-27 11:26 62.19706 -13.12844 26243 ft 225 kts 311°
2026-04-27 11:26 62.20849 -13.15148 26251 ft 226 kts 310°
2026-04-27 11:26 62.21995 -13.17462 26230 ft 227 kts 309°
2026-04-27 11:27 62.23144 -13.19782 26230 ft 227 kts 309°
2026-04-27 11:27 62.24282 -13.22084 26231 ft 228 kts 309°
2026-04-27 11:27 62.25440 -13.24427 26232 ft 229 kts 309°
2026-04-27 11:27 62.26599 -13.26777 26229 ft 230 kts 309°
2026-04-27 11:28 62.27760 -13.29133 26225 ft 230 kts 309°
2026-04-27 11:28 62.28920 -13.31488 26223 ft 229 kts 309°
2026-04-27 11:28 62.30075 -13.33836 26224 ft 228 kts 309°
2026-04-27 11:28 62.31229 -13.36187 26223 ft 228 kts 309°
2026-04-27 11:29 62.32382 -13.38537 26222 ft 228 kts 309°
2026-04-27 11:29 62.33531 -13.40881 26221 ft 228 kts 309°
2026-04-27 11:29 62.34666 -13.43200 26221 ft 228 kts 309°
2026-04-27 11:29 62.35811 -13.45542 26221 ft 227 kts 309°
2026-04-27 11:30 62.36958 -13.47889 26214 ft 227 kts 309°
2026-04-27 11:30 62.38104 -13.50237 26214 ft 227 kts 309°
2026-04-27 11:30 62.39249 -13.52587 26214 ft 227 kts 309°
2026-04-27 11:30 62.40391 -13.54934 26214 ft 227 kts 309°
2026-04-27 11:31 62.41535 -13.57286 26217 ft 227 kts 309°
2026-04-27 11:31 62.42677 -13.59637 26209 ft 227 kts 309°
2026-04-27 11:31 62.43820 -13.61992 26209 ft 227 kts 309°
2026-04-27 11:31 62.44962 -13.64350 26209 ft 227 kts 309°
2026-04-27 11:32 62.46089 -13.66677 26209 ft 227 kts 309°
2026-04-27 11:32 62.47233 -13.69042 26208 ft 228 kts 308°
2026-04-27 11:32 62.48377 -13.71410 26208 ft 228 kts 308°
2026-04-27 11:32 62.49521 -13.73780 26208 ft 228 kts 308°
2026-04-27 11:33 62.50662 -13.76149 26212 ft 227 kts 308°
2026-04-27 11:33 62.51803 -13.78517 26211 ft 227 kts 308°
2026-04-27 11:33 62.52945 -13.80893 26210 ft 227 kts 308°
2026-04-27 11:33 62.54085 -13.83266 26210 ft 227 kts 308°
2026-04-27 11:34 62.55209 -13.85609 26215 ft 227 kts 308°
2026-04-27 11:34 62.56349 -13.87986 26207 ft 227 kts 308°
2026-04-27 11:34 62.57487 -13.90363 26207 ft 227 kts 308°
2026-04-27 11:34 62.58627 -13.92746 26209 ft 227 kts 308°
2026-04-27 11:35 62.59762 -13.95124 26205 ft 227 kts 308°
2026-04-27 11:35 62.60900 -13.97508 26207 ft 227 kts 308°
2026-04-27 11:35 62.62036 -13.99891 26210 ft 227 kts 308°
2026-04-27 11:35 62.63172 -14.02277 26195 ft 227 kts 308°
2026-04-27 11:36 62.64311 -14.04673 26195 ft 228 kts 308°
2026-04-27 11:36 62.65448 -14.07066 26196 ft 228 kts 308°
2026-04-27 11:36 62.66570 -14.09431 26196 ft 228 kts 308°
2026-04-27 11:36 62.67704 -14.11844 26191 ft 229 kts 308°
2026-04-27 11:37 62.68848 -14.14253 26193 ft 229 kts 308°
2026-04-27 11:37 62.69997 -14.16667 26194 ft 229 kts 308°
2026-04-27 11:37 62.71137 -14.19079 26194 ft 229 kts 308°
2026-04-27 11:37 62.72281 -14.21505 26189 ft 230 kts 307°
2026-04-27 11:38 62.73423 -14.23932 26189 ft 230 kts 306°
2026-04-27 11:38 62.74557 -14.26339 26188 ft 231 kts 306°
2026-04-27 11:38 62.75705 -14.28781 26187 ft 231 kts 306°
2026-04-27 11:38 62.76855 -14.31229 26179 ft 231 kts 306°
2026-04-27 11:39 62.78007 -14.33683 26179 ft 231 kts 306°
2026-04-27 11:39 62.79157 -14.36138 26179 ft 231 kts 306°
2026-04-27 11:39 62.80308 -14.38597 26179 ft 231 kts 306°
2026-04-27 11:39 62.81457 -14.41055 26174 ft 231 kts 306°
2026-04-27 11:40 62.82604 -14.43511 26179 ft 231 kts 306°
2026-04-27 11:40 62.83755 -14.45980 26171 ft 231 kts 306°
2026-04-27 11:40 62.84888 -14.48410 26168 ft 231 kts 306°
2026-04-27 11:40 62.86037 -14.50878 26172 ft 231 kts 306°
2026-04-27 11:41 62.87184 -14.53347 26165 ft 231 kts 306°
2026-04-27 11:41 62.88332 -14.55819 26165 ft 231 kts 306°
2026-04-27 11:41 62.89477 -14.58288 26165 ft 231 kts 306°
2026-04-27 11:41 62.90620 -14.60756 26166 ft 231 kts 306°
2026-04-27 11:42 62.91766 -14.63232 26162 ft 231 kts 306°
2026-04-27 11:42 62.92909 -14.65706 26167 ft 231 kts 306°
2026-04-27 11:42 62.94052 -14.68183 26164 ft 231 kts 306°
2026-04-27 11:42 62.95180 -14.70628 26162 ft 231 kts 306°
2026-04-27 11:43 62.96322 -14.73109 26165 ft 231 kts 306°
2026-04-27 11:43 62.97465 -14.75593 26180 ft 232 kts 305°
2026-04-27 11:43 62.98614 -14.78097 26162 ft 232 kts 305°
2026-04-27 11:43 62.99760 -14.80591 26162 ft 232 kts 305°
2026-04-27 11:44 63.00909 -14.83096 26160 ft 232 kts 305°
2026-04-27 11:44 63.02055 -14.85601 26160 ft 232 kts 305°
2026-04-27 11:44 63.03201 -14.88105 26152 ft 232 kts 305°
2026-04-27 11:44 63.04345 -14.90610 26153 ft 232 kts 305°
2026-04-27 11:45 63.05472 -14.93081 26152 ft 232 kts 305°
2026-04-27 11:45 63.06245 -14.94776 26151 ft 232 kts 305°
2026-04-27 11:45 63.07759 -14.98103 26146 ft 232 kts 305°
2026-04-27 11:45 63.08900 -15.00612 26146 ft 232 kts 305°
2026-04-27 11:46 63.10041 -15.03124 26149 ft 232 kts 305°
2026-04-27 11:46 63.11181 -15.05638 26148 ft 232 kts 305°
2026-04-27 11:46 63.12322 -15.08156 26148 ft 231 kts 305°
2026-04-27 11:46 63.13460 -15.10672 26147 ft 231 kts 305°
2026-04-27 11:47 63.14583 -15.13156 26145 ft 232 kts 305°
2026-04-27 11:47 63.15723 -15.15679 26144 ft 232 kts 305°
2026-04-27 11:47 63.16861 -15.18203 26145 ft 232 kts 305°
2026-04-27 11:47 63.17998 -15.20727 26139 ft 232 kts 305°
2026-04-27 11:48 63.19132 -15.23250 26139 ft 232 kts 305°
2026-04-27 11:48 63.20270 -15.25782 26140 ft 232 kts 304°
2026-04-27 11:48 63.21406 -15.28313 26140 ft 232 kts 304°
2026-04-27 11:48 63.22542 -15.30845 26140 ft 231 kts 304°
2026-04-27 11:49 63.23678 -15.33386 26145 ft 233 kts 304°
2026-04-27 11:49 63.24819 -15.35936 26144 ft 232 kts 304°
2026-04-27 11:49 63.25941 -15.38445 26135 ft 232 kts 304°
2026-04-27 11:49 63.27074 -15.40984 26135 ft 231 kts 304°
2026-04-27 11:50 63.28203 -15.43518 26125 ft 230 kts 304°
2026-04-27 11:50 63.29330 -15.46050 26124 ft 230 kts 304°
2026-04-27 11:50 63.30452 -15.48573 26123 ft 230 kts 304°
2026-04-27 11:50 63.31572 -15.51097 26129 ft 229 kts 304°
2026-04-27 11:51 63.32692 -15.53621 26123 ft 229 kts 304°
2026-04-27 11:51 63.33811 -15.56149 26121 ft 229 kts 304°
2026-04-27 11:51 63.36037 -15.61180 26126 ft 229 kts 304°
2026-04-27 11:52 63.37156 -15.63718 26128 ft 230 kts 304°
2026-04-27 11:52 63.38284 -15.66276 26124 ft 232 kts 304°
2026-04-27 11:52 63.39420 -15.68856 26117 ft 234 kts 304°
2026-04-27 11:52 63.40560 -15.71444 26122 ft 234 kts 304°
2026-04-27 11:53 63.41697 -15.74029 26127 ft 233 kts 304°
2026-04-27 11:53 63.42826 -15.76603 26114 ft 232 kts 304°
2026-04-27 11:53 63.43948 -15.79164 26114 ft 230 kts 304°
2026-04-27 11:53 63.45067 -15.81719 26109 ft 229 kts 304°
2026-04-27 11:54 63.46179 -15.84262 26108 ft 228 kts 304°
2026-04-27 11:54 63.47270 -15.86762 26106 ft 228 kts 304°
2026-04-27 11:54 63.48373 -15.89290 26112 ft 228 kts 303°
2026-04-27 11:54 63.49483 -15.91842 26117 ft 230 kts 302°
2026-04-27 11:55 63.50605 -15.94432 26106 ft 233 kts 304°
2026-04-27 11:55 63.51736 -15.97018 26104 ft 231 kts 304°
2026-04-27 11:55 63.52851 -15.99580 26103 ft 229 kts 304°
2026-04-27 11:55 63.53960 -16.02139 26101 ft 228 kts 303°
2026-04-27 11:56 63.55049 -16.04657 26099 ft 227 kts 303°
2026-04-27 11:56 63.56149 -16.07200 26097 ft 227 kts 303°
2026-04-27 11:56 63.57247 -16.09741 26098 ft 226 kts 303°
2026-04-27 11:56 63.58339 -16.12271 26094 ft 225 kts 303°
2026-04-27 11:57 63.59427 -16.14794 26096 ft 225 kts 303°
2026-04-27 11:57 63.60515 -16.17322 26095 ft 224 kts 303°
2026-04-27 11:57 63.61597 -16.19838 26094 ft 224 kts 303°
2026-04-27 11:57 63.62677 -16.22352 26095 ft 223 kts 303°
2026-04-27 11:58 63.63755 -16.24863 26092 ft 223 kts 303°
2026-04-27 11:58 63.64830 -16.27374 26094 ft 224 kts 303°
2026-04-27 11:58 63.65898 -16.29868 26094 ft 225 kts 303°
2026-04-27 11:58 63.66981 -16.32401 26092 ft 225 kts 303°
2026-04-27 11:59 63.68065 -16.34939 26095 ft 224 kts 303°
2026-04-27 11:59 63.69150 -16.37484 26100 ft 227 kts 303°
2026-04-27 11:59 63.70247 -16.40061 26102 ft 228 kts 303°
2026-04-27 11:59 63.71349 -16.42647 26102 ft 229 kts 303°
2026-04-27 12:00 63.72078 -16.44359 26100 ft 229 kts 303°
2026-04-27 12:00 63.73177 -16.46944 26098 ft 227 kts 303°
2026-04-27 12:00 63.74621 -16.50349 26096 ft 226 kts 303°
2026-04-27 12:00 63.75703 -16.52906 26096 ft 225 kts 303°
2026-04-27 12:01 63.76783 -16.55458 26093 ft 224 kts 303°
2026-04-27 12:01 63.77862 -16.58010 26092 ft 224 kts 303°
2026-04-27 12:01 63.78934 -16.60551 26092 ft 223 kts 303°
2026-04-27 12:01 63.79641 -16.62229 26094 ft 222 kts 303°
2026-04-27 12:02 63.80706 -16.64753 26098 ft 221 kts 303°
2026-04-27 12:02 63.82138 -16.68087 26095 ft 221 kts 303°
2026-04-27 12:02 63.82847 -16.69736 26096 ft 220 kts 303°
2026-04-27 12:02 63.83912 -16.72222 26089 ft 220 kts 303°
2026-04-27 12:03 63.85315 -16.75508 26088 ft 219 kts 303°
2026-04-27 12:03 63.86030 -16.77185 26087 ft 219 kts 303°
2026-04-27 12:03 63.87087 -16.79663 26086 ft 218 kts 303°
2026-04-27 12:03 63.88128 -16.82106 26087 ft 218 kts 303°
2026-04-27 12:04 63.89180 -16.84581 26089 ft 218 kts 303°
2026-04-27 12:04 63.90233 -16.87059 26089 ft 218 kts 303°
2026-04-27 12:04 63.91285 -16.89538 26090 ft 218 kts 303°
2026-04-27 12:04 63.92341 -16.92029 26091 ft 219 kts 303°
2026-04-27 12:05 63.93394 -16.94516 26088 ft 219 kts 303°
2026-04-27 12:05 63.94451 -16.97013 26088 ft 219 kts 303°
2026-04-27 12:05 63.95504 -16.99507 26086 ft 218 kts 303°
2026-04-27 12:05 63.96538 -17.01956 26087 ft 217 kts 303°
2026-04-27 12:06 63.97580 -17.04427 26098 ft 216 kts 303°
2026-04-27 12:06 63.98618 -17.06894 26099 ft 216 kts 303°
2026-04-27 12:06 63.99657 -17.09367 26097 ft 216 kts 303°
2026-04-27 12:06 64.00696 -17.11840 26097 ft 216 kts 303°
2026-04-27 12:07 64.01736 -17.14318 26093 ft 216 kts 303°
2026-04-27 12:07 64.02772 -17.16790 26094 ft 216 kts 303°
2026-04-27 12:07 64.03810 -17.19269 26095 ft 216 kts 303°
2026-04-27 12:07 64.04831 -17.21711 26093 ft 216 kts 303°
2026-04-27 12:08 64.05865 -17.24187 26090 ft 216 kts 303°
2026-04-27 12:08 64.06900 -17.26668 26091 ft 216 kts 303°
2026-04-27 12:08 64.07935 -17.29153 26091 ft 216 kts 303°
2026-04-27 12:08 64.08970 -17.31640 26089 ft 216 kts 303°
2026-04-27 12:09 64.10005 -17.34130 26091 ft 216 kts 303°
2026-04-27 12:09 64.11039 -17.36620 26089 ft 216 kts 302°
2026-04-27 12:09 64.12071 -17.39107 26091 ft 216 kts 303°
2026-04-27 12:09 64.13105 -17.41603 26092 ft 216 kts 303°
2026-04-27 12:10 64.14127 -17.44073 26091 ft 216 kts 303°
2026-04-27 12:10 64.15162 -17.46577 26090 ft 216 kts 302°
2026-04-27 12:10 64.16196 -17.49081 26090 ft 216 kts 302°
2026-04-27 12:10 64.17227 -17.51581 26089 ft 215 kts 302°
2026-04-27 12:11 64.18254 -17.54074 26080 ft 215 kts 302°
2026-04-27 12:11 64.19280 -17.56569 26079 ft 215 kts 302°
2026-04-27 12:11 64.20304 -17.59060 26079 ft 214 kts 302°
2026-04-27 12:11 64.21327 -17.61554 26079 ft 215 kts 302°
2026-04-27 12:12 64.22339 -17.64021 26080 ft 215 kts 302°
2026-04-27 12:12 64.23364 -17.66524 26102 ft 216 kts 302°
2026-04-27 12:12 64.24398 -17.69057 26088 ft 218 kts 303°
2026-04-27 12:12 64.25443 -17.71617 26077 ft 221 kts 301°
2026-04-27 12:13 64.26498 -17.74197 26077 ft 221 kts 301°
2026-04-27 12:13 64.27552 -17.76779 26077 ft 221 kts 301°
2026-04-27 12:13 64.28605 -17.79364 26056 ft 221 kts 301°
2026-04-27 12:13 64.29655 -17.81948 26056 ft 221 kts 301°
2026-04-27 12:14 64.30706 -17.84535 26053 ft 221 kts 301°
2026-04-27 12:14 64.31740 -17.87086 26053 ft 221 kts 301°
2026-04-27 12:14 64.32792 -17.89683 26053 ft 222 kts 301°
2026-04-27 12:14 64.33844 -17.92283 26052 ft 222 kts 301°
2026-04-27 12:15 64.34901 -17.94897 26054 ft 223 kts 301°
2026-04-27 12:15 64.35959 -17.97520 26057 ft 224 kts 301°
2026-04-27 12:15 64.37023 -18.00158 26057 ft 225 kts 301°
2026-04-27 12:15 64.38092 -18.02812 26032 ft 226 kts 301°
2026-04-27 12:16 64.39167 -18.05486 26029 ft 227 kts 301°
2026-04-27 12:16 64.40231 -18.08133 26032 ft 228 kts 301°
2026-04-27 12:16 64.41314 -18.10832 26031 ft 229 kts 301°
2026-04-27 12:16 64.42400 -18.13541 26032 ft 230 kts 301°
2026-04-27 12:17 64.43490 -18.16264 26028 ft 231 kts 301°
2026-04-27 12:17 64.44581 -18.18994 26030 ft 231 kts 301°
2026-04-27 12:17 64.45675 -18.21733 26030 ft 232 kts 301°
2026-04-27 12:17 64.46770 -18.24479 26029 ft 232 kts 301°
2026-04-27 12:18 64.47866 -18.27230 26027 ft 233 kts 301°
2026-04-27 12:18 64.48966 -18.29999 26011 ft 234 kts 301°
2026-04-27 12:18 64.50053 -18.32733 26010 ft 233 kts 301°
2026-04-27 12:18 64.51152 -18.35502 26012 ft 233 kts 301°
2026-04-27 12:19 64.52249 -18.38269 26010 ft 233 kts 301°
2026-04-27 12:19 64.53344 -18.41040 26010 ft 233 kts 301°
2026-04-27 12:19 64.54439 -18.43808 26009 ft 233 kts 301°
2026-04-27 12:19 64.55533 -18.46579 26010 ft 233 kts 301°
2026-04-27 12:20 64.56625 -18.49352 26012 ft 233 kts 301°
2026-04-27 12:20 64.57718 -18.52128 26011 ft 233 kts 301°
2026-04-27 12:20 64.58810 -18.54904 26003 ft 232 kts 301°
2026-04-27 12:20 64.59901 -18.57683 26003 ft 232 kts 301°
2026-04-27 12:21 64.60977 -18.60427 26000 ft 232 kts 301°
2026-04-27 12:21 64.62065 -18.63205 26001 ft 232 kts 301°
2026-04-27 12:21 64.63151 -18.65981 26001 ft 232 kts 301°
2026-04-27 12:21 64.64239 -18.68765 26001 ft 232 kts 301°
2026-04-27 12:22 64.65325 -18.71549 26002 ft 232 kts 301°
2026-04-27 12:22 64.66411 -18.74338 26006 ft 232 kts 301°
2026-04-27 12:22 64.67496 -18.77124 26007 ft 232 kts 301°
2026-04-27 12:22 64.68583 -18.79920 25990 ft 232 kts 301°
2026-04-27 12:23 64.69668 -18.82716 25991 ft 232 kts 301°
2026-04-27 12:23 64.70751 -18.85509 25989 ft 231 kts 301°
2026-04-27 12:23 64.71815 -18.88258 25990 ft 231 kts 300°
2026-04-27 12:23 64.72894 -18.91049 26006 ft 232 kts 300°
2026-04-27 12:24 64.73976 -18.93850 25991 ft 232 kts 300°
2026-04-27 12:24 64.75060 -18.96660 25994 ft 233 kts 300°
2026-04-27 12:24 64.76147 -18.99487 25991 ft 235 kts 299°
2026-04-27 12:24 64.77244 -19.02338 25991 ft 236 kts 299°
2026-04-27 12:25 64.78344 -19.05198 25966 ft 236 kts 299°
2026-04-27 12:25 64.79441 -19.08057 25971 ft 236 kts 299°
2026-04-27 12:25 64.80541 -19.10926 25973 ft 236 kts 299°
2026-04-27 12:25 64.81626 -19.13765 25968 ft 237 kts 299°
2026-04-27 12:26 64.82728 -19.16645 25969 ft 237 kts 299°
2026-04-27 12:26 64.83828 -19.19526 25965 ft 237 kts 299°
2026-04-27 12:26 64.84924 -19.22400 25968 ft 236 kts 299°
2026-04-27 12:26 64.86019 -19.25278 25963 ft 236 kts 299°
2026-04-27 12:27 64.87112 -19.28152 25963 ft 235 kts 299°
2026-04-27 12:27 64.88196 -19.31009 25940 ft 234 kts 299°
2026-04-27 12:27 64.89264 -19.33825 25941 ft 234 kts 299°
2026-04-27 12:27 64.90345 -19.36681 25942 ft 234 kts 299°
2026-04-27 12:28 64.91427 -19.39544 25940 ft 234 kts 299°
2026-04-27 12:28 64.92513 -19.42421 25941 ft 235 kts 299°
2026-04-27 12:28 64.93601 -19.45304 25935 ft 235 kts 299°
2026-04-27 12:28 64.94687 -19.48187 25939 ft 235 kts 299°
2026-04-27 12:29 64.95774 -19.51074 25941 ft 235 kts 298°
2026-04-27 12:29 64.96856 -19.53953 25938 ft 234 kts 298°
2026-04-27 12:29 64.97922 -19.56797 25921 ft 235 kts 298°
2026-04-27 12:29 64.99002 -19.59680 25922 ft 234 kts 298°
2026-04-27 12:30 65.00084 -19.62570 25918 ft 234 kts 298°
2026-04-27 12:30 65.01161 -19.65451 25919 ft 233 kts 298°
2026-04-27 12:30 65.02234 -19.68326 25919 ft 233 kts 298°
2026-04-27 12:30 65.03309 -19.71213 25920 ft 234 kts 298°
2026-04-27 12:31 65.04384 -19.74103 25920 ft 234 kts 298°
2026-04-27 12:31 65.05460 -19.76996 25909 ft 234 kts 298°
2026-04-27 12:31 65.06534 -19.79888 25911 ft 234 kts 298°
2026-04-27 12:31 65.07609 -19.82786 25899 ft 234 kts 298°
2026-04-27 12:32 65.08669 -19.85650 25898 ft 234 kts 298°
2026-04-27 12:32 65.09742 -19.88552 25898 ft 234 kts 298°
2026-04-27 12:32 65.10816 -19.91459 25897 ft 234 kts 298°
2026-04-27 12:32 65.11888 -19.94365 25898 ft 234 kts 298°
2026-04-27 12:33 65.12958 -19.97272 25896 ft 234 kts 298°
2026-04-27 12:33 65.14028 -20.00184 25896 ft 234 kts 298°
2026-04-27 12:33 65.15100 -20.03099 25898 ft 234 kts 298°
2026-04-27 12:33 65.16171 -20.06019 25897 ft 234 kts 298°
2026-04-27 12:34 65.17241 -20.08942 25890 ft 234 kts 297°
2026-04-27 12:34 65.18300 -20.11834 25889 ft 234 kts 298°
2026-04-27 12:34 65.19368 -20.14758 25889 ft 234 kts 297°
2026-04-27 12:34 65.20438 -20.17690 25890 ft 234 kts 297°
2026-04-27 12:35 65.21505 -20.20619 25942 ft 234 kts 297°
2026-04-27 12:35 65.22576 -20.23566 25887 ft 235 kts 296°
2026-04-27 12:35 65.23648 -20.26509 25890 ft 234 kts 296°
2026-04-27 12:35 65.24712 -20.29442 25887 ft 234 kts 296°
2026-04-27 12:36 65.25777 -20.32382 25880 ft 234 kts 296°
2026-04-27 12:36 65.26843 -20.35334 25870 ft 236 kts 296°
2026-04-27 12:36 65.27914 -20.38311 25673 ft 244 kts 296°
2026-04-27 12:36 65.29039 -20.41440 25367 ft 253 kts 297°
2026-04-27 12:37 65.30204 -20.44651 25038 ft 256 kts 298°
2026-04-27 12:37 65.31372 -20.47872 24699 ft 257 kts 298°
2026-04-27 12:37 65.32539 -20.51120 24355 ft 258 kts 298°
2026-04-27 12:37 65.33707 -20.54381 24015 ft 258 kts 298°
2026-04-27 12:38 65.34877 -20.57643 23677 ft 259 kts 298°
2026-04-27 12:38 65.36050 -20.60921 23310 ft 259 kts 298°
2026-04-27 12:38 65.37215 -20.64177 22945 ft 256 kts 298°
2026-04-27 12:38 65.38350 -20.67351 22609 ft 252 kts 298°
2026-04-27 12:39 65.39481 -20.70529 22278 ft 249 kts 298°
2026-04-27 12:39 65.40600 -20.73682 21955 ft 247 kts 298°
2026-04-27 12:39 65.41709 -20.76806 21629 ft 245 kts 297°
2026-04-27 12:39 65.42811 -20.79916 21308 ft 244 kts 297°
2026-04-27 12:40 65.43909 -20.83017 20988 ft 244 kts 297°
2026-04-27 12:40 65.45010 -20.86135 20666 ft 245 kts 297°
2026-04-27 12:40 65.46115 -20.89265 20360 ft 246 kts 297°
2026-04-27 12:40 65.47227 -20.92418 20072 ft 244 kts 298°
2026-04-27 12:41 65.48302 -20.95453 19870 ft 240 kts 297°
2026-04-27 12:41 65.49380 -20.98531 19574 ft 241 kts 297°
2026-04-27 12:41 65.50466 -21.01632 19259 ft 242 kts 298°
2026-04-27 12:41 65.51555 -21.04734 18941 ft 243 kts 298°
2026-04-27 12:42 65.52648 -21.07852 18621 ft 243 kts 298°
2026-04-27 12:42 65.53739 -21.10973 18300 ft 244 kts 298°
2026-04-27 12:42 65.54826 -21.14079 17956 ft 241 kts 298°
2026-04-27 12:42 65.55882 -21.17103 17632 ft 236 kts 298°
2026-04-27 12:43 65.56928 -21.20110 17318 ft 232 kts 297°
2026-04-27 12:43 65.57958 -21.23080 17019 ft 230 kts 297°
2026-04-27 12:43 65.58981 -21.26030 16716 ft 229 kts 297°
2026-04-27 12:43 65.60005 -21.28993 16415 ft 230 kts 298°
2026-04-27 12:44 65.61036 -21.31970 16112 ft 232 kts 298°
2026-04-27 12:44 65.62072 -21.34962 15806 ft 233 kts 298°
2026-04-27 12:44 65.63114 -21.37978 15496 ft 234 kts 298°
2026-04-27 12:44 65.64157 -21.41000 15189 ft 234 kts 298°
2026-04-27 12:45 65.65188 -21.43977 14884 ft 228 kts 298°
2026-04-27 12:45 65.66198 -21.46916 14579 ft 225 kts 298°
2026-04-27 12:45 65.67182 -21.49783 14286 ft 223 kts 298°
2026-04-27 12:45 65.68169 -21.52662 13994 ft 221 kts 298°
2026-04-27 12:46 65.69146 -21.55516 13701 ft 219 kts 298°
2026-04-27 12:46 65.70096 -21.58298 13420 ft 219 kts 298°
2026-04-27 12:46 65.71082 -21.61185 13104 ft 218 kts 299°
2026-04-27 12:46 65.72042 -21.63994 12815 ft 216 kts 299°
2026-04-27 12:47 65.72998 -21.66798 12534 ft 214 kts 299°
2026-04-27 12:47 65.73951 -21.69601 12247 ft 214 kts 299°
2026-04-27 12:47 65.74886 -21.72351 11989 ft 214 kts 298°
2026-04-27 12:47 65.75833 -21.75148 11695 ft 214 kts 298°
2026-04-27 12:48 65.76781 -21.77944 11425 ft 214 kts 299°
2026-04-27 12:48 65.77735 -21.80764 11137 ft 218 kts 299°
2026-04-27 12:48 65.78704 -21.83627 10845 ft 220 kts 300°
2026-04-27 12:48 65.79679 -21.86509 10555 ft 221 kts 300°
2026-04-27 12:49 65.80658 -21.89407 10247 ft 222 kts 300°
2026-04-27 12:49 65.81638 -21.92315 9945 ft 222 kts 300°
2026-04-27 12:49 65.82620 -21.95234 9657 ft 222 kts 301°
2026-04-27 12:49 65.83597 -21.98143 9349 ft 222 kts 300°
2026-04-27 12:50 65.84561 -22.01014 9051 ft 221 kts 300°
2026-04-27 12:50 65.85532 -22.03911 8760 ft 221 kts 300°
2026-04-27 12:50 65.86504 -22.06816 8465 ft 221 kts 300°
2026-04-27 12:50 65.87478 -22.09729 8178 ft 221 kts 300°
2026-04-27 12:51 65.88452 -22.12649 7886 ft 221 kts 300°
2026-04-27 12:51 65.89426 -22.15568 7593 ft 222 kts 300°
2026-04-27 12:51 65.90399 -22.18493 7302 ft 221 kts 300°
2026-04-27 12:51 65.91372 -22.21421 7004 ft 222 kts 301°
2026-04-27 12:52 65.92347 -22.24356 6716 ft 223 kts 301°
2026-04-27 12:52 65.93320 -22.27287 6431 ft 221 kts 301°
2026-04-27 12:52 65.94263 -22.30124 6126 ft 212 kts 302°
2026-04-27 12:52 65.95168 -22.32846 5838 ft 201 kts 302°
2026-04-27 12:53 65.96862 -22.37992 5324 ft 189 kts 302°
2026-04-27 12:53 65.97682 -22.40490 5077 ft 187 kts 302°
2026-04-27 12:53 65.98491 -22.42950 4826 ft 184 kts 303°
2026-04-27 12:54 65.99269 -22.45422 4585 ft 180 kts 295°
2026-04-27 12:54 65.99863 -22.48091 4329 ft 178 kts 292°
2026-04-27 12:54 66.00455 -22.50717 4064 ft 178 kts 293°
2026-04-27 12:54 66.01059 -22.53371 3816 ft 178 kts 294°
2026-04-27 12:55 66.01661 -22.56021 3565 ft 177 kts 294°
2026-04-27 12:55 66.02261 -22.58671 3312 ft 177 kts 294°
2026-04-27 12:55 66.02856 -22.61306 3100 ft 175 kts 294°
2026-04-27 12:55 66.03437 -22.63870 2954 ft 168 kts 294°
2026-04-27 12:56 66.03994 -22.66348 2794 ft 163 kts 295°
2026-04-27 12:56 66.04521 -22.68683 2637 ft 149 kts 295°
2026-04-27 12:56 66.05004 -22.70839 2499 ft 140 kts 294°
2026-04-27 12:56 66.05466 -22.72908 2374 ft 137 kts 294°
2026-04-27 12:57 66.05918 -22.74924 2252 ft 136 kts 294°
2026-04-27 12:57 66.06358 -22.76886 2141 ft 126 kts 295°
2026-04-27 12:57 66.06772 -22.78739 2024 ft 122 kts 295°
2026-04-27 12:57 66.07174 -22.80546 1909 ft 120 kts 295°
2026-04-27 12:58 66.07563 -22.82287 1888 ft 113 kts 294°
2026-04-27 12:58 66.07947 -22.83963 1833 ft 113 kts 295°
2026-04-27 12:58 66.08333 -22.85588 1741 ft 103 kts 294°
2026-04-27 12:58 66.08674 -22.87104 1609 ft 100 kts 292°
2026-04-27 12:59 66.08991 -22.88645 1464 ft 105 kts 292°
2026-04-27 12:59 66.09298 -22.90305 1336 ft 105 kts 290°
2026-04-27 12:59 66.09577 -22.91943 1228 ft 105 kts 291°
2026-04-27 12:59 66.09840 -22.93605 1103 ft 104 kts 291°
2026-04-27 13:00 66.10102 -22.95268 953 ft 105 kts 294°
2026-04-27 13:00 66.10429 -22.96854 801 ft 104 kts 301°
2026-04-27 13:00 66.10789 -22.98394 690 ft 103 kts 303°
2026-04-27 13:00 66.11094 -22.99973 606 ft 104 kts 284°
2026-04-27 13:01 66.10866 -23.01643 451 ft 105 kts 234°
2026-04-27 13:01 66.10440 -23.03017 416 ft 99 kts 231°
2026-04-27 13:01 66.09998 -23.04252 387 ft 96 kts 222°
2026-04-27 13:01 66.09499 -23.05292 419 ft 93 kts 217°
2026-04-27 13:02 66.09006 -23.06310 461 ft 93 kts 218°
2026-04-27 13:02 66.08514 -23.07377 493 ft 98 kts 213°
2026-04-27 13:02 66.07945 -23.08353 441 ft 101 kts 208°
2026-04-27 13:02 66.07353 -23.09291 399 ft 100 kts 204°
2026-04-27 13:03 66.06786 -23.10183 338 ft 95 kts 208°
2026-04-27 13:03 66.06305 -23.11332 187 ft 100 kts 233°
2026-04-27 13:03 66.05966 -23.12816 16 ft 90 kts 236°
2026-04-27 13:03 66.05734 -23.13881 12 ft 47 kts 240°
2026-04-27 13:04 66.05656 -23.14241 12 ft 15 kts 238°
2026-04-27 13:04 66.05602 -23.14261 17 ft 8 kts 152°
2026-04-27 13:04 66.05568 -23.14270 21 ft 7 kts 240°
2026-04-27 13:04 66.05529 -23.14406 21 ft 10 kts 239°
2026-04-27 13:05 66.05493 -23.14469 21 ft 5 kts 165°
2026-04-27 13:05 66.05466 -23.14439 21 ft 0 kts 151°